Theta_e
357 357 358 359 359 360 357 357 358 354 354 349 355 354 355 354 354 355 356 354 356 356 356 355 356 357 356 351 347 348 348 348 349 349 348 347 350 349 354 354 355 354 354
355 358 359 358 359 358 359 356 357 357 356 358 355 360 360 359 358 357 357 353 355 354 356 355 357 357 356 355 354 351 350 351 350 353 353 353 352 350 352 352 353 353 354
355 358 357 356 357 357 357 357 355 358 359 355 357 359 360 359 358 357 357 357 356 355 355 358 357 357 356 354 354 356 353 352 352 353 354 350 350 349 350 352 351 350 352
354 355 357 357 356 356 356 357 357 357 359 358 357 358 359 358 358 359 359 358 358 359 357 358 357 357 357 355 355 355 354 353 354 353 353 351 350 349 349 350 351 350 353
352 355 356 358 357 356 356 356 357 358 359 358 357 358 358 360 358 360 360 359 358 358 358 356 354 358 357 357 356 355 354 352 351 349 349 348 348 349 353 352 353 353 353
354 356 356 359 359 359 357 358 357 359 358 359 358 359 358 357 355 355 359 358 356 358 358 359 355 354 355 354 354 352 352 352 354 354 351 350 353 353 354 354 356 355 355
349 354 353 358 358 357 358 359 359 360 361 360 361 360 359 359 355 355 355 356 356 358 358 355 356 352 351 352 354 353 352 352 353 352 354 354 355 354 354 354 352 353 355
352 351 351 354 356 357 357 358 358 359 362 361 362 361 360 359 358 356 355 354 356 357 356 355 355 356 356 355 354 354 354 354 352 351 351 351 350 349 346 346 347 349 348
353 348 345 350 354 355 356 357 358 360 360 361 361 361 362 359 358 357 355 355 353 354 355 355 355 355 356 354 353 354 353 353 350 348 345 344 345 346 345 345 346 348 349
351 352 350 346 344 350 353 354 355 355 355 356 359 358 359 360 359 356 355 355 354 353 352 352 354 354 354 354 354 353 354 352 351 349 348 348 349 349 347 346 348 350 351
349 352 352 353 353 353 352 350 353 353 355 355 356 355 355 356 357 356 355 356 355 352 353 355 354 352 354 355 354 352 351 350 351 348 345 346 347 349 348 348 347 345 347
350 352 353 353 353 353 352 352 352 352 355 355 352 351 352 353 353 352 352 354 353 353 351 348 350 349 348 348 344 339 340 341 342 342 343 346 348 346 345 345 344 344 343
346 348 345 345 347 351 353 352 351 350 350 341 343 341 341 344 339 338 337 338 338 343 345 346 346 345 342 340 340 340 340 340 340 344 345 346 345 344 344 343 345 345 344
335 337 339 340 339 341 341 342 341 342 341 341 339 338 335 340 341 339 337 336 336 337 339 340 340 340 340 340 339 340 339 340 344 345 346 344 342 341 341 341 342 343 345
334 336 333 336 339 336 335 336 339 337 339 340 340 340 336 338 338 340 340 339 339 338 339 341 338 336 336 336 337 338 339 340 340 342 342 341 339 338 337 338 338 339 341
339 339 339 340 340 337 336 332 334 336 337 338 338 337 337 339 338 338 339 339 339 338 338 338 339 337 336 336 336 336 337 338 339 339 338 337 336 335 335 334 335 335 336
322 330 330 333 331 332 335 334 329 325 325 327 331 336 336 336 336 335 336 336 335 335 334 338 338 338 337 336 334 334 334 333 333 332 333 332 331 331 331 332 332 332 332
317 317 324 329 329 329 328 329 329 331 332 329 325 327 329 331 332 329 329 328 329 331 332 332 331 331 332 331 329 328 331 330 329 330 328 328 326 326 327 327 327 329 327
318 319 320 320 319 320 321 321 322 322 323 326 329 325 326 326 328 328 329 331 334 332 332 332 330 329 328 327 327 327 328 328 326 323 322 319 318 318 321 321 321 320 319
311 312 315 319 321 322 323 323 323 321 321 320 317 317 318 322 328 328 327 329 330 330 330 330 331 329 327 325 325 325 325 322 319 318 318 317 316 316 318 318 318 318 317
312 313 313 313 314 314 314 314 315 318 319 321 322 318 312 319 323 324 325 328 330 329 328 327 328 330 327 326 325 324 322 321 319 317 316 316 316 316 317 316 316 316 316
311 312 312 312 313 313 314 314 315 315 315 315 314 315 313 316 317 319 320 321 323 324 326 327 327 325 326 326 325 323 321 319 318 317 316 316 315 315 315 315 315 315 315
311 311 312 311 312 312 312 313 312 312 313 313 314 314 315 315 315 315 315 315 316 318 320 322 324 323 323 322 324 323 321 319 318 317 316 316 315 315 315 315 315 315 315
312 312 312 311 311 312 312 313 312 311 312 312 312 313 313 313 313 314 314 315 316 316 316 316 317 319 320 321 323 323 323 322 320 318 317 316 316 315 314 314 315 315 315
312 312 313 313 313 313 313 313 313 313 313 313 312 312 312 312 313 313 312 312 313 313 314 315 315 315 316 317 318 319 320 322 322 320 318 316 316 316 316 316 315 315 315
312 312 313 313 313 313 313 313 313 313 313 313 312 312 313 313 312 312 312 312 312 312 312 312 312 312 313 314 314 314 313 313 315 316 319 318 317 315 315 315 315 315 314
Wind_Speed
35 34 34 35 34 32 30 28 25 27 22 27 21 24 24 25 25 25 24 23 18 22 21 20 18 16 17 18 19 19 17 16 16 19 21 21 23 22 20 21 20 22 22
34 33 34 33 33 33 33 31 30 28 28 24 26 22 24 25 26 25 24 24 24 23 21 19 19 20 18 22 17 17 16 18 18 18 19 20 20 21 20 25 22 20 19
33 33 35 36 35 35 33 33 33 32 30 30 28 27 27 27 27 27 25 24 23 22 24 23 22 21 21 20 15 14 13 16 17 15 20 22 23 26 27 26 23 25 23
31 33 32 35 37 36 33 32 33 33 32 31 30 30 29 28 28 27 27 26 25 25 24 22 20 19 21 20 18 16 17 18 17 19 23 21 22 23 24 23 20 18 19
24 31 32 32 34 33 33 34 34 34 33 32 31 31 30 30 30 28 27 28 28 26 24 22 22 23 23 22 20 14 14 18 21 21 22 22 23 22 23 26 27 26 22
19 21 27 27 29 30 31 31 33 32 34 33 34 33 32 33 34 34 31 30 29 28 26 26 24 20 21 24 28 28 23 16 17 20 23 22 24 25 25 25 25 25 19
24 17 18 25 26 30 31 31 29 32 32 33 33 34 33 33 35 33 34 34 28 22 23 26 23 24 25 26 25 23 21 19 19 19 21 24 24 24 23 22 21 20 20
25 22 16 15 22 25 29 30 31 31 32 33 33 33 33 34 35 36 33 28 28 28 27 24 21 23 24 22 20 15 18 17 17 21 19 20 20 21 22 23 25 25 24
23 27 32 22 16 24 28 26 27 29 29 31 32 32 33 33 34 37 36 31 31 30 28 26 25 25 24 26 23 20 23 21 23 22 18 17 17 17 18 18 19 19 18
26 24 25 29 24 36 27 22 24 27 26 31 30 32 32 30 32 35 35 35 31 29 29 29 27 28 27 27 23 21 19 21 19 14 12 13 14 13 14 15 17 16 14
27 26 25 28 29 30 26 27 26 26 27 28 27 25 26 25 28 34 37 32 28 23 17 12 9 10 13 21 21 15 16 15 13 12 17 17 13 12 11 9 10 12 10
16 17 18 22 23 23 27 24 24 25 20 17 17 18 16 23 31 26 18 23 22 14 12 8 7 10 11 13 16 17 17 17 16 16 19 19 8 11 13 12 12 10 11
14 5 9 12 9 10 11 14 12 8 8 9 8 1 8 13 7 2 12 3 10 4 3 4 4 6 8 11 14 14 15 17 15 20 21 13 7 11 10 12 9 8 9
9 12 10 11 16 16 17 13 11 6 3 3 5 9 10 3 8 5 8 6 9 5 9 8 8 10 11 12 12 10 13 12 17 13 10 8 9 9 7 7 8 7 8
15 11 13 13 13 13 11 9 10 8 1 4 9 6 8 8 10 6 5 5 4 9 8 9 8 6 9 10 7 8 10 11 11 11 11 8 7 5 4 4 6 7 8
12 12 8 11 9 13 13 13 13 10 6 1 2 3 3 4 4 6 9 9 9 5 6 9 11 10 10 9 9 11 12 11 12 8 10 6 5 5 3 6 6 7 6
22 10 20 19 15 14 12 13 15 15 17 13 9 5 3 6 6 4 4 5 3 5 5 5 8 11 10 10 8 7 8 8 9 5 7 5 4 5 5 6 5 7 9
26 19 12 20 16 18 19 18 15 10 13 9 12 12 13 13 12 8 8 5 4 2 1 1 7 7 6 5 5 4 5 5 6 7 7 6 4 4 3 4 6 4 7
10 8 8 18 19 20 20 17 14 10 12 9 8 11 10 8 6 5 2 1 2 5 5 5 2 3 4 3 2 5 6 6 5 4 5 5 4 5 4 4 5 3 4
10 14 16 17 14 14 12 11 12 11 10 9 11 11 7 1 3 7 8 7 4 5 5 6 8 8 8 7 6 8 7 5 6 7 8 6 5 5 4 4 4 5 6
8 13 19 20 17 13 12 9 7 6 7 7 8 7 10 5 4 3 4 2 6 7 5 8 5 15 12 10 9 7 7 8 8 8 7 7 4 6 3 4 5 5 6
14 14 15 15 14 15 13 13 11 10 9 7 6 3 6 4 5 5 4 6 9 7 8 10 8 9 12 14 13 11 8 9 10 8 8 6 6 6 5 5 5 5 6
13 13 14 14 11 11 12 10 11 10 7 7 6 7 6 6 6 5 6 9 8 9 11 13 12 14 15 13 14 14 13 13 13 13 11 10 10 9 8 8 7 8 4
11 11 11 11 10 10 10 10 9 4 6 7 7 6 6 6 7 7 7 8 7 9 9 10 12 14 15 16 16 12 13 13 16 14 18 15 13 10 12 12 12 10 6
6 6 6 6 7 8 7 8 8 9 8 8 8 8 9 9 9 9 8 7 9 10 11 12 12 12 12 10 12 18 13 8 18 13 11 14 15 16 14 13 14 13 13
6 7 7 7 8 8 9 9 10 9 9 9 11 11 10 10 11 12 11 11 11 12 12 14 14 14 15 16 17 12 11 13 10 9 16 19 16 20 20 21 20 19 17
Wind_Direction
211 214 210 210 209 211 218 218 221 221 215 228 204 203 212 217 221 225 232 245 248 233 238 254 258 249 260 270 273 277 274 269 285 305 324 312 313 309 304 304 302 303 295
206 215 212 212 213 212 214 217 215 219 223 214 221 221 216 218 220 224 227 236 232 244 248 245 249 254 249 254 261 271 284 295 293 290 294 293 296 300 296 299 299 297 295
204 209 220 216 215 218 216 215 215 215 218 221 217 222 223 225 223 224 226 231 238 241 233 238 244 248 254 261 277 277 272 272 293 306 304 296 293 293 287 285 290 286 287
209 211 217 223 219 218 219 214 216 216 217 220 224 220 222 226 229 228 229 233 237 238 242 247 255 250 249 250 257 259 263 268 277 278 274 280 282 286 277 274 281 309 284
230 213 215 221 228 224 218 216 214 215 219 221 224 226 222 225 231 230 232 233 232 236 247 248 251 249 241 242 255 253 268 278 282 289 295 295 295 304 314 309 303 292 294
285 237 215 218 223 231 226 220 217 216 217 220 222 225 227 229 231 231 229 232 232 231 229 242 248 255 248 244 250 256 256 254 268 279 287 289 294 300 305 306 307 303 298
273 281 249 219 219 229 231 227 221 220 221 220 223 225 228 230 237 237 235 233 247 242 236 247 232 251 251 242 246 242 239 249 268 270 272 278 291 296 303 303 300 293 288
268 259 263 261 236 236 235 230 226 225 221 223 224 226 229 232 233 238 239 233 234 241 248 254 255 261 266 272 273 275 245 262 277 276 269 277 290 293 299 296 295 291 292
255 239 242 235 237 246 237 239 236 230 229 226 228 228 226 229 237 236 235 233 238 241 242 243 246 248 256 260 265 265 264 267 274 274 265 280 296 305 303 299 298 309 301
273 238 237 235 226 244 238 236 240 243 246 244 238 233 234 238 231 232 234 231 237 239 238 240 243 240 243 253 258 250 248 255 266 265 275 291 295 297 307 283 286 295 304
277 256 229 220 218 223 227 232 237 237 237 241 246 253 249 237 247 236 228 224 235 243 246 251 237 245 235 238 242 229 246 257 258 269 276 277 284 299 300 292 297 294 293
271 243 240 226 225 224 226 237 237 232 235 238 252 267 270 271 247 237 224 214 206 197 218 238 247 242 233 233 230 230 246 266 267 268 271 273 286 297 298 305 296 293 294
253 237 141 134 160 201 210 215 205 189 189 96 111 16 251 226 310 160 134 153 135 167 177 218 189 207 228 234 244 253 251 256 258 255 258 276 292 284 289 297 292 300 291
132 136 141 129 104 115 115 116 121 108 115 177 206 183 170 109 311 197 108 123 168 187 244 249 230 231 243 246 254 249 261 244 258 268 265 274 274 271 290 303 307 316 307
157 160 152 138 119 100 94 84 92 89 239 260 241 225 189 205 214 221 160 195 232 214 206 205 214 215 225 219 232 238 233 248 250 243 236 228 237 262 285 306 318 324 312
210 125 124 127 113 117 120 97 80 78 68 353 57 78 171 218 228 238 192 194 185 172 230 232 236 191 197 203 203 234 234 243 254 245 259 246 253 271 298 316 316 320 327
25 114 111 102 103 106 120 114 102 82 72 70 76 78 196 168 133 155 151 172 179 197 202 246 226 201 204 203 211 215 227 237 273 254 294 303 309 310 327 304 286 309 320
30 347 92 100 105 98 96 90 88 68 98 69 72 76 84 98 111 104 110 122 117 190 109 336 106 97 128 190 191 199 209 226 221 249 248 246 256 270 259 294 291 312 330
21 290 105 99 101 105 99 94 94 95 79 79 82 54 56 59 91 111 160 175 300 237 207 205 185 179 179 217 168 197 216 215 200 221 240 255 264 269 260 281 294 289 296
52 37 42 64 80 88 101 108 112 109 100 101 81 54 29 356 198 204 208 217 226 248 212 219 198 190 186 188 209 208 212 211 217 222 222 225 241 256 276 279 292 308 301
55 59 63 53 53 61 68 64 61 54 51 52 86 65 8 345 3 356 320 241 267 295 237 261 230 198 188 198 200 214 235 249 221 230 218 218 227 266 242 276 295 307 308
63 62 66 64 68 54 64 64 56 53 49 38 29 121 12 294 337 329 322 320 311 302 286 293 285 266 230 213 200 201 229 240 243 241 250 243 235 240 262 259 262 282 292
47 51 59 47 52 58 43 51 55 44 38 51 39 25 6 7 341 330 327 315 306 305 310 306 285 270 275 275 232 225 238 238 217 221 232 241 239 246 245 264 274 278 302
41 38 43 54 41 24 26 22 27 48 10 17 7 4 360 0 343 341 316 313 315 309 306 298 295 301 302 297 294 260 239 279 274 237 220 233 246 238 241 260 262 277 274
49 17 33 32 32 22 12 16 10 1 356 351 342 344 336 336 324 326 329 318 318 312 300 296 291 292 288 305 294 295 306 297 264 257 295 233 252 274 268 269 273 286 283
351 17 355 352 356 353 352 349 348 341 338 340 337 326 318 314 316 317 321 319 315 318 320 301 296 294 293 288 279 281 307 318 304 286 260 261 254 255 261 261 265 260 257